sat.trackr.live / text

‹ back to catalog

ONEWEB-0280

NORAD 48998 · 2021-060AH

PAYLOAD ACTIVE UNKNOWN

§ Identity

Operator
Country
UK
Launch date
2021-07-01
Launch site
VOSTO
Launch vehicle
Mass (kg)
RCS (m²)

Purposes: comms

External: N2YO · Heavens-Above · Gunter

§ Orbital elements

Epoch: 2026-09-03T15:24:00.569664Z

Period
109.37 min
Inclination
87.9123°
Eccentricity
0.0001925
Mean motion
13.16594044 rev/d
Perigee alt
1,196.3 km
Apogee alt
1,199.2 km
Semi-major
7,575.9 km
B*
1.3808e-4
RAAN
213.1949°
Arg perigee
72.9294°
Mean anomaly
287.2048°
Rev number
24,988

§ Raw data

ONEWEB-02801 48998U 21060AH  26246.64167326  .00000066  00000+0  13808-3 0  99962 48998  87.9123 213.1949 0001925  72.9294 287.2048 13.16594044249888

JSON: /api/v1/satellites/48998 · /tle

For live sub-satellite position, see the globe view (requires WebGL).

§ Visibility from observer

Set your observer location to see the next 7 days of passes ≥ 10°. The values pass through the URL so the page stays shareable.

No JS? Fill the form by hand. The geolocation button needs JavaScript.